Hourly Weather Ryabinki

Today, 9 May, Sunday

Time Temperature Precipitation Wind Pressure Humidity
00:00 +3°C° 0.4 mm 5 mps 740 mmHg 94%
01:00 +2°C° 0.4 mm 5 mps 740 mmHg 94%
02:00 +2°C° 0 mm 5 mps 741 mmHg 95%
03:00 +2°C° 0.1 mm 5 mps 741 mmHg 94%
04:00 +1°C° 0.1 mm 5 mps 742 mmHg 93%
05:00 +1°C° 0.1 mm 5 mps 742 mmHg 93%
06:00 +1°C° 0 mm 5 mps 743 mmHg 91%
07:00 +1°C° 0 mm 5 mps 744 mmHg 88%
08:00 +1°C° 0 mm 5 mps 745 mmHg 86%
09:00 +3°C° 0 mm 5 mps 745 mmHg 77%
10:00 +5°C° 0 mm 6 mps 745 mmHg 68%
11:00 +8°C° 0 mm 6 mps 745 mmHg 59%
12:00 +8°C° 0 mm 6 mps 746 mmHg 54%
13:00 +9°C° 0 mm 6 mps 746 mmHg 50%
14:00 +10°C° 0 mm 6 mps 747 mmHg 45%
15:00 +10°C° 0 mm 5 mps 748 mmHg 46%
16:00 +10°C° 0 mm 5 mps 748 mmHg 47%
17:00 +11°C° 0 mm 4 mps 749 mmHg 49%
18:00 +8°C° 0 mm 4 mps 749 mmHg 56%
19:00 +7°C° 0 mm 3 mps 750 mmHg 63%
20:00 +5°C° 0 mm 2 mps 751 mmHg 70%
21:00 +4°C° 0 mm 2 mps 752 mmHg 73%
22:00 +4°C° 0 mm 2 mps 752 mmHg 75%
23:00 +3°C° 0 mm 2 mps 753 mmHg 78%

Tomorrow, 10 May, Monday

Time Temperature Precipitation Wind Pressure Humidity
00:00 +2°C° 0 mm 2 mps 754 mmHg 79%
01:00 +2°C° 0 mm 2 mps 754 mmHg 79%
02:00 +2°C° 0 mm 2 mps 755 mmHg 80%
03:00 +3°C° 0 mm 1 mps 755 mmHg 76%
04:00 +3°C° 0 mm 1 mps 756 mmHg 72%
05:00 +4°C° 0 mm 1 mps 756 mmHg 68%
06:00 +6°C° 0 mm 1 mps 757 mmHg 59%
07:00 +8°C° 0 mm 1 mps 757 mmHg 50%
08:00 +10°C° 0 mm 1 mps 757 mmHg 41%
09:00 +11°C° 0 mm 1 mps 757 mmHg 38%
10:00 +13°C° 0 mm 1 mps 757 mmHg 36%
11:00 +14°C° 0 mm 1 mps 757 mmHg 34%
12:00 +15°C° 0 mm 1 mps 757 mmHg 33%
13:00 +15°C° 0 mm 1 mps 757 mmHg 32%
14:00 +16°C° 0 mm 1 mps 757 mmHg 32%
15:00 +16°C° 0 mm 1 mps 757 mmHg 35%
16:00 +15°C° 0 mm 1 mps 757 mmHg 38%
17:00 +15°C° 0 mm 1 mps 757 mmHg 41%
18:00 +13°C° 0 mm 1 mps 758 mmHg 48%
19:00 +11°C° 0 mm 1 mps 758 mmHg 54%
20:00 +9°C° 0 mm 1 mps 758 mmHg 60%
21:00 +9°C° 0 mm 1 mps 758 mmHg 63%
22:00 +8°C° 0 mm 1 mps 758 mmHg 67%
23:00 +7°C° 0 mm 1 mps 758 mmHg 70%

Day after tomorrow, 11 May, Tuesday

Time Temperature Precipitation Wind Pressure Humidity
00:00 +7°C° 0 mm 1 mps 758 mmHg 71%
01:00 +6°C° 0 mm 1 mps 759 mmHg 73%
02:00 +6°C° 0 mm 1 mps 759 mmHg 74%
03:00 +6°C° 0 mm 1 mps 759 mmHg 74%
04:00 +7°C° 0 mm 1 mps 759 mmHg 73%
05:00 +7°C° 0 mm 1 mps 759 mmHg 72%
06:00 +8°C° 0 mm 2 mps 759 mmHg 65%
07:00 +10°C° 0 mm 2 mps 759 mmHg 57%
08:00 +13°C° 0 mm 2 mps 759 mmHg 49%
09:00 +14°C° 0 mm 3 mps 759 mmHg 46%
10:00 +16°C° 0 mm 3 mps 759 mmHg 42%
11:00 +17°C° 0 mm 3 mps 759 mmHg 38%
12:00 +18°C° 0 mm 3 mps 759 mmHg 37%
13:00 +18°C° 0 mm 3 mps 758 mmHg 37%
14:00 +19°C° 0 mm 3 mps 758 mmHg 36%
15:00 +18°C° 0 mm 3 mps 758 mmHg 41%
16:00 +18°C° 0 mm 3 mps 758 mmHg 46%
17:00 +18°C° 0 mm 2 mps 758 mmHg 51%
18:00 +16°C° 0 mm 2 mps 758 mmHg 60%
19:00 +14°C° 0 mm 2 mps 758 mmHg 68%
20:00 +12°C° 0 mm 2 mps 758 mmHg 77%
21:00 +10°C° 0 mm 2 mps 757 mmHg 79%
22:00 +10°C° 0 mm 2 mps 757 mmHg 82%
23:00 +9°C° 0 mm 2 mps 757 mmHg 85%

12 May, Wednesday

Time Temperature Precipitation Wind Pressure Humidity
00:00 +9°C° 0 mm 2 mps 757 mmHg 87%
01:00 +8°C° 0 mm 2 mps 757 mmHg 88%
02:00 +8°C° 0 mm 2 mps 757 mmHg 90%
03:00 +9°C° 0 mm 2 mps 757 mmHg 88%
04:00 +9°C° 0 mm 2 mps 757 mmHg 87%
05:00 +10°C° 0 mm 3 mps 756 mmHg 85%
06:00 +12°C° 0 mm 3 mps 756 mmHg 79%
07:00 +14°C° 0 mm 4 mps 756 mmHg 74%
08:00 +18°C° 0 mm 4 mps 756 mmHg 69%
09:00 +18°C° 0 mm 4 mps 756 mmHg 69%
10:00 +18°C° 0 mm 4 mps 756 mmHg 70%
11:00 +19°C° 0 mm 4 mps 756 mmHg 70%
12:00 +18°C° 0 mm 4 mps 755 mmHg 71%
13:00 +18°C° 0 mm 3 mps 755 mmHg 72%
14:00 +18°C° 0 mm 3 mps 755 mmHg 73%
15:00 +18°C° 0 mm 4 mps 755 mmHg 74%
16:00 +18°C° 0 mm 4 mps 754 mmHg 74%
17:00 +18°C° 0 mm 4 mps 754 mmHg 75%
18:00 +17°C° 0 mm 4 mps 754 mmHg 78%
19:00 +17°C° 0 mm 4 mps 754 mmHg 80%
20:00 +15°C° 0 mm 4 mps 754 mmHg 83%
21:00 +15°C° 0.1 mm 4 mps 754 mmHg 84%
22:00 +14°C° 0.1 mm 4 mps 753 mmHg 86%
23:00 +14°C° 0.1 mm 4 mps 753 mmHg 87%

13 May, Thursday

Time Temperature Precipitation Wind Pressure Humidity
00:00 +14°C° 0 mm 4 mps 753 mmHg 88%
01:00 +13°C° 0 mm 3 mps 753 mmHg 90%
02:00 +13°C° 0 mm 3 mps 752 mmHg 91%
03:00 +13°C° 0.1 mm 3 mps 752 mmHg 92%
04:00 +13°C° 0.1 mm 3 mps 752 mmHg 93%
05:00 +13°C° 0.1 mm 3 mps 752 mmHg 94%
06:00 +13°C° 0.1 mm 3 mps 752 mmHg 92%
07:00 +14°C° 0.1 mm 4 mps 752 mmHg 90%
08:00 +15°C° 0.1 mm 4 mps 752 mmHg 88%
09:00 +15°C° 0.2 mm 4 mps 752 mmHg 85%
10:00 +17°C° 0.2 mm 4 mps 751 mmHg 83%
11:00 +17°C° 0.2 mm 5 mps 751 mmHg 80%
12:00 +18°C° 0.4 mm 4 mps 751 mmHg 78%
13:00 +18°C° 0.4 mm 4 mps 751 mmHg 75%
14:00 +19°C° 0.4 mm 4 mps 751 mmHg 73%
15:00 +19°C° 0.2 mm 4 mps 751 mmHg 73%
16:00 +19°C° 0.2 mm 4 mps 750 mmHg 72%
17:00 +19°C° 0.2 mm 3 mps 750 mmHg 71%
18:00 +18°C° 0.1 mm 3 mps 750 mmHg 79%
19:00 +16°C° 0.1 mm 2 mps 750 mmHg 86%
20:00 +15°C° 0.1 mm 2 mps 750 mmHg 93%
21:00 +14°C° 0 mm 2 mps 750 mmHg 94%
22:00 +13°C° 0 mm 2 mps 750 mmHg 95%
23:00 +13°C° 0 mm 2 mps 750 mmHg 96%

14 May, Friday

Time Temperature Precipitation Wind Pressure Humidity
00:00 +13°C° 0 mm 2 mps 750 mmHg 96%
01:00 +12°C° 0 mm 2 mps 750 mmHg 97%
02:00 +12°C° 0 mm 2 mps 750 mmHg 97%
03:00 +12°C° 0 mm 2 mps 750 mmHg 96%
04:00 +13°C° 0 mm 2 mps 750 mmHg 96%
05:00 +13°C° 0 mm 2 mps 749 mmHg 95%
06:00 +14°C° 0 mm 3 mps 749 mmHg 89%
07:00 +17°C° 0 mm 3 mps 749 mmHg 82%
08:00 +19°C° 0 mm 4 mps 749 mmHg 76%
09:00 +20°C° 0 mm 4 mps 749 mmHg 70%
10:00 +21°C° 0 mm 5 mps 748 mmHg 63%
11:00 +23°C° 0 mm 5 mps 748 mmHg 57%
12:00 +23°C° 0 mm 5 mps 748 mmHg 57%
13:00 +23°C° 0 mm 5 mps 747 mmHg 57%
14:00 +23°C° 0 mm 4 mps 747 mmHg 57%
15:00 +23°C° 0.1 mm 5 mps 747 mmHg 60%
16:00 +22°C° 0.1 mm 5 mps 747 mmHg 63%
17:00 +21°C° 0.1 mm 5 mps 746 mmHg 66%
18:00 +21°C° 0.3 mm 5 mps 746 mmHg 71%
19:00 +20°C° 0.3 mm 4 mps 746 mmHg 77%
20:00 +19°C° 0.3 mm 4 mps 746 mmHg 82%
21:00 +18°C° 0.3 mm 4 mps 746 mmHg 86%
22:00 +17°C° 0.3 mm 3 mps 746 mmHg 90%
23:00 +16°C° 0.3 mm 3 mps 746 mmHg 95%
Show more